Home > Weather > Detroit > Past weeks

Flag for U.S.A. Weather for the Past 2 Weeks in Detroit, Michigan, U.S.A.

Now
20 °F

More clouds than sun.


Feels Like: 8 °F
Forecast: 16 / 24 °F
Wind: 10 mph from Northwest

Location: Detroit City Airport

Current Time: Feb 10, 2016 at 10:50:30 AM

Latest Report: Feb 10, 2016 at 9:53 AM


Visibility: 3 mi

Pressure: 29.83 "Hg

Humidity: 65%

Dew point: 10 °F

Location of DetroitLocation

Historic Weather in Detroit — Graph

°F

Detroit Temperature Yesterday

Maximum temperature yesterday: 34 °F (at 12:53 AM)
Minimum temperature yesterday: 25 °F (at 10:53 PM)
Average temperature yesterday: 30 °F

High & Low Weather Summary for the Past Weeks

 TemperatureHumidityPressure
High56 °F (Feb 3, 10:53 AM)96% (Feb 9, 7:53 AM)30.39 "Hg (Feb 9, 7:53 AM)
Low19 °F (Feb 10, 8:53 AM)43% (Jan 29, 3:53 PM)29.46 "Hg (Feb 3, 5:53 AM)
Average35 °F71%29.89 "Hg
* Reported Jan 26 9:01 AM — Feb 10 8:53 AM, Detroit, Weather by CustomWeather, © 2016

Note: Actual official high and low records may vary slightly from our data, if they occured in-between our weather recording intervals... More about our weather records

Advertising

Detroit Weather History for the Previous 24 Hours

 ConditionsComfort  
Time TempWeatherWind HumidityBarometerVisibility
8:53 AM
Wed, Feb 10
19 °FLight snow. Mostly cloudy.9 mph77%29.81 "Hg1 mi
7:53 AM20 °FLight snow. Mostly cloudy.9 mph74%29.79 "Hg3 mi
6:53 AM21 °FMostly cloudy.9 mph71%29.77 "Hg3 mi
5:53 AM22 °FLight snow. Overcast.8 mph72%29.78 "Hg3 mi
4:53 AM23 °FLight snow. Mostly cloudy.10 mph68%29.74 "Hg3 mi
3:53 AM23 °FLight snow. Mostly cloudy.7 mph74%29.73 "Hg3 mi
2:53 AM23 °FLight snow. Mostly cloudy.9 mph81%29.73 "Hg3 mi
1:53 AM24 °FMostly cloudy.9 mph77%29.72 "Hg3 mi
12:53 AM24 °FOvercast.7 mph77%29.72 "Hg3 mi
11:53 PM
Tue, Feb 9
25 °FLight snow. Mostly cloudy.12 mph75%29.72 "Hg3 mi
10:53 PM25 °FLight snow. Overcast.9 mph78%29.72 "Hg2 mi
10:00 PM26 °FLight snow. Overcast.12 mph77%29.70 "Hg3 mi
8:53 PM26 °FLight snow. Ice fog.10 mph84%29.72 "Hg2 mi
7:53 PM27 °FLight snow. Ice fog.12 mph85%29.70 "Hg2 mi
6:53 PM27 °FLight snow. Overcast.16 mph81%29.69 "Hg1 mi
5:53 PM28 °FLight snow. Overcast.12 mph78%29.66 "Hg1 mi
5:00 PM28 °FLight snow. More clouds than sun.9 mph78%29.62 "Hg2 mi
3:53 PM28 °FLight snow. Cloudy.12 mph81%29.61 "Hg1 mi
2:53 PM29 °FLight snow. Mostly cloudy.10 mph79%29.59 "Hg2 mi
1:55 PM29 °FLight snow. Mostly cloudy.14 mph82%29.57 "Hg2 mi
12:59 PM30 °FLight snow. Cloudy.12 mph82%29.57 "Hg2 mi
11:53 AM30 °FLight snow. Cloudy.10 mph79%29.59 "Hg2 mi
10:53 AM30 °FLight snow. More clouds than sun.16 mph82%29.59 "Hg2 mi
Weather by CustomWeather, © 2016

See weather overviewHow to use our weather pages